#timestamp,LO_Frequency,Hit,StdDev 
1601560815.9,286047005.6,N
1601560835.7,286047005.7,N
1601560855.5,286047005.2,N
1601560875.4,286047005.6,N
1601560895.2,286047005.9,N
1601560915.0,286047005.6,N
1601560916.0,286047005.6,N
1601560935.8,286047007.6,N
1601560955.6,286047004.7,N
1601560975.5,286047006.0,N
1601560995.3,286047004.7,N
1601561015.1,286047004.2,N
1601561035.9,286047001.5,N
1601561055.7,286047001.3,N
1601561075.6,286047004.3,N
1601561095.4,286047002.9,N
1601561115.2,286047003.0,N
1601561135.1,286047001.3,N
1601561136.0,286047001.3,N
1601561155.8,286047003.7,N
1601561175.7,286047004.2,N
1601561195.5,286047004.2,N
1601561215.3,286047000.2,N
1601561235.2,286046999.8,N
1601561255.0,286047002.6,N
1601561255.9,286047002.6,N
1601561275.8,286047005.8,N
1601561295.6,286047004.4,N
1601561315.4,286047002.6,N
1601561335.3,286047001.6,N
1601561355.1,286047004.4,N
1601561375.9,286047003.2,N
1601561395.7,286047003.1,N
1601561415.5,286047001.8,N
1601561435.4,286047001.9,N
1601561455.2,286047004.3,N
1601561475.0,286047001.8,N
1601561476.0,286047001.8,N
1601561495.8,286047004.4,N
1601561515.6,286047004.0,N
1601561535.5,286047002.6,N
1601561555.3,286047000.6,N
1601561575.2,286047001.4,N
1601561595.9,286047001.2,N
1601561615.2,286046998.2,N
1601561635.1,286046997.0,N
1601561636.0,286046997.0,N
1601561655.8,286046997.5,N
1601561675.6,286046997.1,N
1601561695.5,286046997.3,N
1601561715.3,286046997.3,N
1601561735.2,286046995.2,N
1601561755.9,286046996.1,N
1601561775.7,286046994.0,N
1601561795.6,286046994.3,N
1601561815.4,286046994.0,N
1601561835.2,286046996.3,N
1601561855.1,286046995.0,N
1601561856.0,286046995.0,N
1601561875.8,286046995.0,N
1601561895.7,286046997.8,N
1601561915.5,286046994.9,N
1601561935.3,286046993.4,N
1601561955.2,286046995.7,N
1601561975.0,286046997.5,N
1601561975.9,286046997.5,N
1601561995.8,286046996.3,N
1601562015.6,286046997.6,N
1601562035.4,286046997.7,N
1601562055.3,286046996.9,N
1601562075.1,286046998.7,N
1601562095.8,286046998.4,N
1601562115.7,286046999.2,N
1601562135.5,286046997.9,N
1601562155.4,286046996.0,N
1601562175.2,286046993.6,Y
1601562195.0,286046998.8,P
1601562195.9,286046998.8,N
1601562215.8,286047001.0,N
1601562235.6,286047000.4,N
1601562255.5,286047000.7,N
1601562275.3,286046994.9,Y
1601562295.1,286046993.8,P
1601562315.9,286046994.1,N
1601562335.7,286046994.2,N
1601562355.6,286046994.0,N
1601562375.4,286046994.2,N
1601562395.2,286046992.4,Y
1601562415.1,286046999.3,P
1601562416.0,286046999.3,N
1601562435.8,286046998.5,N
1601562455.7,286047002.6,N
1601562475.5,286047001.8,N
1601562495.3,286047002.2,N
1601562515.2,286047004.0,N
1601562535.0,286047003.4,N
1601562535.9,286047003.4,N
1601562555.8,286047004.4,N
1601562575.6,286047002.5,N
1601562595.4,286047002.2,N
1601562615.3,286047001.4,N
1601562635.1,286047001.3,N
1601562655.8,286047002.8,N
1601562675.7,286047000.9,N
1601562695.5,286046999.8,N
1601562715.4,286047000.5,N
1601562735.2,286046999.8,N
1601562755.1,286047000.1,N
1601562756.0,286047000.1,N
1601562775.8,286047003.1,N
1601562795.6,286047003.5,N
1601562815.5,286047002.2,N
1601562835.3,286047001.3,N
1601562855.1,286047003.5,N
1601562875.9,286047002.4,N
1601562895.7,286047001.5,N
1601562915.6,286046999.8,N
1601562935.4,286047000.0,N
1601562955.2,286046999.0,N
1601562975.1,286046995.0,Y
1601562976.0,286046995.0,P
1601562995.8,286046997.4,N
1601563015.7,286046999.5,N
1601563035.5,286046997.4,N
1601563055.3,286046996.0,N
1601563075.2,286046994.8,N
1601563095.0,286046994.8,N
1601563095.9,286046994.8,N
1601563115.8,286046996.3,N
1601563135.6,286046992.9,Y
1601563155.4,286046995.9,P
1601563175.3,286046995.4,P
1601563195.1,286046998.8,N
1601563215.8,286046998.4,N
1601563235.7,286046999.4,N
1601563255.5,286046997.0,N
1601563275.4,286046997.0,N
1601563295.2,286046996.9,N
1601563315.0,286047001.0,N
1601563315.9,286047001.0,N
1601563335.8,286047000.0,N
1601563355.6,286047000.7,N
1601563375.5,286047002.1,N
1601563395.3,286047002.8,N
1601563415.1,286047000.5,N
1601563435.9,286046994.9,N
1601563455.7,286046996.8,N
1601563475.5,286046997.8,N
1601563495.4,286046995.2,N
1601563515.2,286046993.4,N
1601563535.1,286046993.9,N
1601563536.0,286046993.9,N
1601563555.8,286046994.3,N
1601563575.6,286046996.9,N
1601563595.5,286046998.5,N
1601563615.3,286046998.3,N
1601563635.2,286046994.9,N
1601563655.9,286046996.1,N
1601563675.7,286046996.0,N
1601563695.6,286046999.6,N
1601563715.4,286047001.1,N
1601563735.2,286047001.2,N
1601563755.1,286047001.0,N
1601563756.0,286047001.0,N
1601563775.8,286046997.1,N
1601563795.7,286046999.0,N
1601563815.5,286046996.8,N
1601563835.3,286046997.7,N
1601563855.2,286047001.1,N
1601563875.0,286047000.1,N
1601563875.9,286047000.1,N
1601563895.8,286047000.5,N
1601563915.6,286046998.7,N
1601563935.4,286046996.9,N
1601563955.3,286046997.3,N
1601563975.1,286046997.7,N
1601563995.8,286046999.5,N
1601564015.7,286046996.5,N
1601564035.5,286046998.3,N
1601564055.4,286046998.9,N
1601564075.2,286046998.5,N
1601564095.0,286046998.7,N
1601564095.9,286046998.7,N
1601564115.8,286046997.8,N
1601564135.6,286046994.9,Y
1601564155.4,286046996.4,P
1601564175.3,286046988.5,P
1601564195.1,286046991.6,N
1601564215.9,286046989.8,N
1601564235.7,286046988.2,Y
1601564255.5,286046994.9,P
1601564275.4,286046997.3,N
1601564295.2,286046999.3,N
1601564315.1,286047000.9,N
1601564316.0,286047000.9,N
1601564335.8,286046998.5,N
1601564355.6,286047000.6,N
1601564375.5,286047002.5,N
1601564395.3,286047002.8,N
